Observations for Trim Patrick St
| Time | AQI | Temp °C | Hum % | Pres Pa | CO μg/m³ | H₂S μg/m³ | NO μg/m³ | NO₂ μg/m³ | O₃ μg/m³ | SO₂ μg/m³ | PM1 μg/m³ | PM2.5 μg/m³ | PM10 μg/m³ |
|---|---|---|---|---|---|---|---|---|---|---|---|---|---|
| Sunday 9 August 2026 | |||||||||||||
| 02:14 | 2 | 18.7 | 69 | 84,955 | 0 | 1.17 | 1.93 | 11.89 | 39.75 | 1.01 | 3.71 | 7.41 | 8.15 |
| 02:13 | 2 | 18.7 | 69 | 84,826 | 0 | 2.59 | 1.83 | 22.34 | 37.84 | 0 | 2 | 5.96 | 6.55 |
| 02:12 | 2 | 18.7 | 69 | 84,632 | 0 | 3.74 | 1.98 | 18.31 | 47.03 | 0.49 | 3.71 | 7.41 | 8.15 |
| 02:11 | 2 | 18.7 | 68 | 84,362 | 0 | 3.9 | 1.9 | 18.74 | 36.95 | 0 | 3.71 | 6.7 | 7.37 |
| 02:10 | 2 | 18.7 | 68 | 84,188 | 0 | 4.77 | 1.79 | 28.08 | 43.61 | 0 | 2.86 | 6.71 | 7.38 |
| 02:09 | 2 | 18.7 | 68 | 84,052 | 0 | 1.67 | 1.93 | 20.27 | 40.26 | 0.6 | 2.86 | 5.97 | 6.57 |
| 02:08 | 2 | 18.7 | 68 | 83,918 | 0 | 2.72 | 1.8 | 12.88 | 44.54 | 0.63 | 2 | 5.25 | 5.77 |
| 02:07 | 2 | 18.7 | 68 | 83,910 | 0 | 1.85 | 1.55 | 25.26 | 35.85 | 0 | 2.86 | 7.43 | 8.17 |
| 02:06 | 2 | 18.7 | 68 | 83,802 | 0 | 0.73 | 1.78 | 12.57 | 43.06 | 0.77 | 2.86 | 6.71 | 7.38 |
| 02:05 | 2 | 18.7 | 68 | 83,851 | 0 | 1.07 | 1.77 | 13.05 | 39.29 | 0.66 | 2.86 | 5.99 | 6.59 |
| 02:04 | 2 | 18.8 | 68 | 83,678 | 0 | 3.53 | 1.57 | 13.06 | 44.25 | 0.51 | 2 | 5.98 | 6.58 |
| 02:03 | 2 | 18.7 | 68 | 83,510 | 0 | 2.96 | 1.54 | 25.66 | 46.73 | 0.58 | 2.86 | 7.46 | 8.21 |
| 02:02 | 2 | 18.7 | 67 | 83,278 | 0 | 2.25 | 1.56 | 17.77 | 29.17 | 0 | 3.71 | 6.78 | 7.46 |
| 02:01 | 2 | 18.8 | 67 | 83,065 | 0 | 2.9 | 1.54 | 19.53 | 38.31 | 0.29 | 2 | 6.07 | 6.68 |
| 02:00 | 2 | 18.7 | 68 | 82,882 | 0 | 2.8 | 1.36 | 16.84 | 40.09 | 0.68 | 2.86 | 5.99 | 6.59 |
| 01:59 | 2 | 18.8 | 68 | 82,754 | 0 | 1.22 | 1.51 | 13.29 | 39.65 | 0.45 | 2 | 6.73 | 7.4 |
| 01:58 | 2 | 18.8 | 68 | 82,614 | 0 | 2.95 | 1.54 | 16.42 | 34.15 | 0.75 | 2.86 | 6.74 | 7.42 |
| 01:57 | 2 | 18.8 | 67 | 82,364 | 0 | 2.74 | 1.83 | 26.3 | 34.43 | 0 | 3.71 | 7.52 | 8.28 |
| 01:56 | 2 | 18.8 | 68 | 82,033 | 0 | 2.32 | 1.7 | 19.46 | 39.57 | 0.37 | 2 | 6 | 6.6 |
| 01:55 | 2 | 18.8 | 68 | 81,933 | 0 | 1.38 | 2.01 | 12.75 | 41.07 | 1.13 | 2.86 | 6.72 | 7.39 |